COSMOS 1275 DEB

Satellite information

Favourite Embed

Satellite Type and Status

DEBRISIN ORBIT

Key statistics

Satellite COSMOS 1275 DEB at a glance.

Uptime

16162

Days in orbit

Revolutions

≈ 14.4

Per day

Orbit

LEO

Low Earth Orbit

Inclination

82.9

Latest

Satellite identification and parameters

Extended collection of information and parameters for COSMOS 1275 DEB.

Object identification

Identified? True

Debris? True

Object name: COSMOS 1275 DEB

International designator: 1981-053JN

Object number (NORAD): 14558

Object ID (CCSDS): 14558

Country: COMMONWEALTH OF INDEPENDENT STATES (CIS)

Current information (Y/N): Y

RCS size: SMALL

Orbital parameters

Period: 100.253 minutes

Inclination: 82.9183 deg

SMA: 7148.654 km

Apoapsis: 781.985 km

Periapsis: 759.053 km

RAAN: 245.0578 deg

Eccentricy: 0.00160399

Argument of periapsis: 26.9345 deg

Mean anomaly: 27.4003 deg

Mean motion: 14.36370069 rev/day

Mean motion (dot): 0.00012077 rev/day2

B* drag term: 0.0041111432 1/REarth

Two-line elements (TLE)

Creation date: Sept. 3, 2025, 2:21 a.m.

Reference frame: TEME

Reference center: EARTH

Epoch: Sept. 2, 2025, 6:40 p.m. UTC

TLE line 0: 0 COSMOS 1275 DEB

TLE line 1: 1 14558U 81053JN 25245.77822534 .00012077 00000-0 41111-2 0 9993

TLE line 2: 2 14558 82.9183 245.0578 0016040 26.9345 27.4003 14.36370069252315

Live tracking on map

Real-time ground track for satellite COSMOS 1275 DEB.

In-orbit conjunctions

A list of the most updated potential collisions computed for object COSMOS 1275 DEB.

Target Orbit TCA Probability of collision Miss distance Type
FENGYUN 1C DEB SSO 2024-11-14 23:24:01 0.0002767329 840.0 (m) DEBRIS
COSMOS 1375 DEB LEO 2024-11-13 18:16:08 0.0001250025 419.0 (m) DEBRIS

Associated space launch

Navigation satellite providing location information for the Tsiklon-B navigation system

COSMOS 1275 DEB was lifted into orbit during the mission ‘Kosmos-3M | Parus 27’, on board a Kosmos-3M space rocket.

The launch took place on June 4, 1981, 3:41 p.m. from 132/2.

For more information about the launch, click the button.

Launch to space Kosmos-3M | Parus 27
Kosmos-3M | Parus 27

Agency: N/A

Status: Launch Successful

Launch date: June 4, 1981, 3:41 p.m. UTC

Rocket: Kosmos-3M

Launch pad: 132/2

Location: Plesetsk Cosmodrome, Russian Federation

...

Latest news about this satellite

There are no fresh news available about this satellite. Check back as we update our databases every day.


Newsletter sign-up

Weekly statistics, charts and insights to help you stay on top of the space industry.